Tracking 31027 objects as of 19-Jul-2025
HD Live streaming from Space Station
objects crossing your sky now

SL-12 R/B(AUX MOTOR)

Track SL-12 R/B(AUX MOTOR) now!
10-day predictions


NORAD ID: 32281
Int'l Code: 2007-052G
Perigee: 612.4 km
Apogee: 18,910.4 km
Inclination: 65.3 °
Period: 339.9 minutes
Semi major axis: 16132 km
RCS: 0.5624 m2 (medium)
Launch date: October 26, 2007
Source: Commonwealth of Independent States (former USSR) (CIS)
Launch site: TYURATAM MISSILE AND SPACE COMPLEX (TTMTR)

Note: This is a ROCKET BODY
Your satellite tracking list
Your tracking list is empty




NASA's NSSDC Master Catalog

Two Line Element Set (TLE):
1 32281U 07052G   25198.90676823 -.00000064  00000-0  43696-4 0  9999
2 32281  65.3276  58.0285 5671205 218.9614  82.1253  4.23696430273754
Source of the keplerian elements: AFSPC